TimeCDT,TemperatureF,Dew PointF,Humidity,Sea Level PressureIn,VisibilityMPH,Wind Direction,Wind SpeedMPH,Gust SpeedMPH,PrecipitationIn,Events,Conditions,WindDirDegrees,DateUTC
12:15 AM,35.8,25.3,66,29.99,10.0,West,8.1,-,N/A,,Clear,280,2012-11-01 05:15:00
12:35 AM,35.1,25.2,67,29.98,10.0,West,8.1,-,N/A,,Clear,280,2012-11-01 05:35:00
12:55 AM,34.9,25.0,67,29.98,10.0,West,5.8,-,N/A,,Clear,280,2012-11-01 05:55:00
1:15 AM,35.2,24.8,66,29.98,10.0,West,6.9,-,N/A,,Clear,270,2012-11-01 06:15:00
1:35 AM,34.9,25.9,70,29.97,10.0,West,5.8,-,N/A,,Scattered Clouds,270,2012-11-01 06:35:00
1:55 AM,35.6,26.4,69,29.98,10.0,West,5.8,-,N/A,,Scattered Clouds,280,2012-11-01 06:55:00
2:15 AM,35.1,25.7,69,29.98,10.0,West,5.8,-,N/A,,Scattered Clouds,280,2012-11-01 07:15:00
2:35 AM,34.7,25.7,70,29.97,10.0,West,5.8,-,N/A,,Scattered Clouds,270,2012-11-01 07:35:00
2:55 AM,34.7,25.7,70,29.97,10.0,West,6.9,-,N/A,,Scattered Clouds,260,2012-11-01 07:55:00
3:15 AM,35.6,25.7,67,29.98,10.0,West,5.8,-,N/A,,Scattered Clouds,270,2012-11-01 08:15:00
3:35 AM,34.9,26.4,71,29.97,10.0,West,4.6,-,N/A,,Mostly Cloudy,260,2012-11-01 08:35:00
3:55 AM,34.3,26.6,73,29.96,10.0,WSW,3.5,-,N/A,,Mostly Cloudy,240,2012-11-01 08:55:00
4:15 AM,35.1,27.3,73,29.96,10.0,West,5.8,-,N/A,,Scattered Clouds,260,2012-11-01 09:15:00
4:35 AM,36.1,29.1,76,29.95,10.0,SW,6.9,-,N/A,,Clear,230,2012-11-01 09:35:00
4:55 AM,37.8,29.3,72,29.94,10.0,WSW,6.9,-,N/A,,Scattered Clouds,240,2012-11-01 09:55:00
5:15 AM,38.8,29.5,69,29.95,10.0,West,5.8,-,N/A,,Scattered Clouds,260,2012-11-01 10:15:00
5:35 AM,39.2,30.4,71,29.95,10.0,West,4.6,-,N/A,,Mostly Cloudy,280,2012-11-01 10:35:00
5:55 AM,39.7,30.4,69,29.95,10.0,West,5.8,-,N/A,,Overcast,270,2012-11-01 10:55:00
6:15 AM,39.7,30.9,71,29.96,10.0,West,4.6,-,N/A,,Overcast,280,2012-11-01 11:15:00
6:35 AM,39.6,31.5,73,29.96,10.0,Calm,Calm,-,N/A,,Overcast,0,2012-11-01 11:35:00
6:55 AM,40.1,31.8,72,29.95,10.0,WNW,3.5,-,N/A,,Overcast,290,2012-11-01 11:55:00
7:15 AM,40.1,32.0,73,29.95,10.0,West,3.5,-,N/A,,Overcast,280,2012-11-01 12:15:00
7:35 AM,40.6,32.0,71,29.94,10.0,WSW,4.6,-,N/A,,Overcast,250,2012-11-01 12:35:00
7:55 AM,40.5,32.4,73,29.94,10.0,WSW,3.5,-,N/A,,Overcast,240,2012-11-01 12:55:00
8:35 AM,42.4,33.6,71,29.95,10.0,WSW,5.8,-,N/A,,Overcast,240,2012-11-01 13:35:00
8:55 AM,44.1,34.7,70,29.95,10.0,WSW,5.8,-,N/A,,Overcast,240,2012-11-01 13:55:00
9:15 AM,45.7,34.9,66,29.95,10.0,WSW,5.8,-,N/A,,Overcast,250,2012-11-01 14:15:00
9:35 AM,47.7,36.0,64,29.96,7.0,West,6.9,-,N/A,,Overcast,260,2012-11-01 14:35:00
9:55 AM,50.0,35.8,58,29.95,10.0,West,10.4,-,N/A,,Overcast,270,2012-11-01 14:55:00
10:15 AM,50.4,35.8,57,29.96,10.0,West,9.2,-,N/A,,Overcast,280,2012-11-01 15:15:00
10:35 AM,51.1,35.8,56,29.96,10.0,West,8.1,-,N/A,,Overcast,280,2012-11-01 15:35:00
10:55 AM,54.1,36.7,52,29.96,10.0,WNW,10.4,-,N/A,,Mostly Cloudy,290,2012-11-01 15:55:00
11:15 AM,55.2,36.9,50,29.95,10.0,West,9.2,-,N/A,,Clear,280,2012-11-01 16:15:00
11:35 AM,55.8,37.2,50,29.94,10.0,WNW,8.1,-,N/A,,Clear,290,2012-11-01 16:35:00
11:55 AM,57.7,38.1,48,29.94,10.0,WNW,8.1,-,N/A,,Clear,300,2012-11-01 16:55:00
12:15 PM,59.5,38.8,46,29.93,10.0,WNW,8.1,-,N/A,,Clear,300,2012-11-01 17:15:00
12:35 PM,61.0,38.8,44,29.92,10.0,NW,9.2,-,N/A,,Clear,320,2012-11-01 17:35:00
1:15 PM,62.1,38.7,42,29.91,10.0,NNW,11.5,-,N/A,,Clear,330,2012-11-01 18:15:00
1:35 PM,62.6,38.5,41,29.90,10.0,NW,9.2,-,N/A,,Clear,310,2012-11-01 18:35:00
1:55 PM,63.0,38.3,40,29.90,10.0,NW,8.1,-,N/A,,Clear,320,2012-11-01 18:55:00
2:15 PM,63.1,38.3,40,29.89,10.0,NNW,15.0,-,N/A,,Clear,340,2012-11-01 19:15:00
2:35 PM,63.5,37.4,38,29.89,10.0,NNW,12.7,-,N/A,,Clear,340,2012-11-01 19:35:00
2:55 PM,63.3,37.0,38,29.88,10.0,NNW,11.5,17.3,N/A,,Clear,340,2012-11-01 19:55:00
3:15 PM,63.1,37.0,38,29.89,10.0,NNW,16.1,19.6,N/A,,Clear,340,2012-11-01 20:15:00
3:35 PM,62.4,37.2,39,29.89,10.0,NNW,15.0,18.4,N/A,,Clear,330,2012-11-01 20:35:00
3:55 PM,61.7,36.7,39,29.89,10.0,NNW,13.8,-,N/A,,Clear,340,2012-11-01 20:55:00
4:15 PM,60.8,36.9,41,29.90,10.0,NNW,13.8,-,N/A,,Clear,330,2012-11-01 21:15:00
4:35 PM,59.9,37.4,43,29.89,10.0,NNW,13.8,-,N/A,,Clear,330,2012-11-01 21:35:00
4:55 PM,59.2,37.6,45,29.89,10.0,NNW,12.7,-,N/A,,Clear,330,2012-11-01 21:55:00
5:15 PM,57.9,36.9,45,29.90,10.0,NNW,13.8,-,N/A,,Clear,340,2012-11-01 22:15:00
5:35 PM,55.8,36.3,48,29.90,10.0,NNW,11.5,-,N/A,,Clear,330,2012-11-01 22:35:00
5:55 PM,52.7,34.5,50,29.90,10.0,NW,11.5,-,N/A,,Clear,320,2012-11-01 22:55:00
6:15 PM,50.4,33.4,52,29.91,10.0,NNW,10.4,-,N/A,,Clear,330,2012-11-01 23:15:00
6:35 PM,48.4,32.9,55,29.92,10.0,NNW,10.4,-,N/A,,Clear,330,2012-11-01 23:35:00
6:55 PM,48.2,32.9,55,29.92,10.0,NNW,9.2,-,N/A,,Clear,340,2012-11-01 23:55:00
7:15 PM,47.3,32.9,57,29.93,10.0,NNW,10.4,-,N/A,,Clear,340,2012-11-02 00:15:00
7:35 PM,45.9,32.9,61,29.94,10.0,NNW,9.2,-,N/A,,Clear,340,2012-11-02 00:35:00
7:55 PM,45.0,32.9,63,29.95,10.0,North,8.1,-,N/A,,Clear,350,2012-11-02 00:55:00
8:15 PM,42.8,32.0,66,29.95,10.0,North,6.9,-,N/A,,Clear,360,2012-11-02 01:15:00
8:35 PM,41.9,32.0,68,29.95,10.0,North,6.9,-,N/A,,Clear,350,2012-11-02 01:35:00
8:55 PM,40.8,32.0,71,29.96,10.0,North,8.1,-,N/A,,Clear,350,2012-11-02 01:55:00
9:15 PM,38.5,30.9,74,29.96,10.0,North,6.9,-,N/A,,Clear,350,2012-11-02 02:15:00
9:35 PM,38.8,31.1,74,29.97,10.0,North,6.9,-,N/A,,Clear,350,2012-11-02 02:35:00
9:55 PM,38.5,30.6,73,29.97,10.0,North,8.1,-,N/A,,Clear,350,2012-11-02 02:55:00
10:15 PM,37.8,30.6,75,29.97,10.0,North,8.1,-,N/A,,Clear,350,2012-11-02 03:15:00
10:35 PM,37.0,30.4,77,29.98,10.0,North,8.1,-,N/A,,Clear,350,2012-11-02 03:35:00
10:55 PM,37.0,31.1,79,29.99,10.0,North,8.1,-,N/A,,Clear,360,2012-11-02 03:55:00
11:15 PM,36.5,30.6,79,29.99,10.0,North,6.9,-,N/A,,Clear,350,2012-11-02 04:15:00
11:35 PM,35.8,30.6,81,30.00,10.0,North,6.9,-,N/A,,Clear,360,2012-11-02 04:35:00
11:55 PM,36.0,30.6,81,30.00,10.0,North,6.9,-,N/A,,Clear,10,2012-11-02 04:55:00